Flag for Germany Weather past 2 weeks in Flensburg, Schleswig-Holstein, Germany

Now
58 °F

Passing clouds.


Feels Like: 58 °F
Forecast: 60 / 76 °F
Wind: 3 mph from Southwest

Location: Schleswig

Current Time: Jul 31, 2014 at 6:02:05 AM

Latest Report: Jul 31, 2014 at 5:00 AM


Visibility: 16 mi

Pressure: 29.89 "Hg

Humidity: 93%

Dew point: 56 °F

Location of FlensburgLocation

Historic Weather in Flensburg — Graph

°F

Flensburg temperature yesterday

Maximum temperature yesterday: 77 °F (at 3:00 PM)
Minimum temperature yesterday: 60 °F (at 6:00 AM)
Average temperature yesterday: 68 °F

Past Weeks' High & Low Weather Summary

 TemperatureHumidityPressure
High83 °F (Jul 19, 2:00 PM)98% (Jul 16, 5:00 AM)30.23 "Hg (Jul 16, 5:00 AM)
Low51 °F (Jul 17, 5:00 AM)30% (Jul 22, 2:00 PM)29.79 "Hg (Jul 30, 4:00 AM)
Average70 °F68%30.01 "Hg
* Reported Jul 16 4:00 AM — Jul 31 4:00 AM, Flensburg, Weather by CustomWeather, © 2014

Note: Actual official high and low records may vary slightly from our data, if they occured in-between our weather recording intervals... More about our weather records

Advertising

Flensburg weather history for previous 24 hours

 ConditionsComfort  
Time TempWeatherWind HumidityBarometerVisibility
4:00 AM
Jul 31
59 °FPassing clouds.2 mph90%29.88 "Hg19 mi
3:00 AM60 °FPassing clouds.3 mph87%29.88 "Hg22 mi
2:00 AM58 °FClear.2 mph89%29.88 "Hg22 mi
1:00 AM58 °FPassing clouds.3 mph89%29.88 "Hg22 mi
12:00 AM60 °FPassing clouds.2 mph84%29.88 "Hg22 mi
10:00 PM
Jul 30
65 °FPassing clouds.5 mph71%29.87 "Hg25 mi
9:00 PM67 °FPartly sunny.6 mph64%29.86 "Hg25 mi
8:00 PM68 °FPartly sunny.5 mph63%29.85 "Hg25 mi
7:00 PM69 °FPartly sunny.8 mph60%29.84 "Hg25 mi
6:00 PM71 °FPartly sunny.6 mph58%29.83 "Hg25 mi
5:00 PM73 °FPartly sunny.7 mph54%29.83 "Hg25 mi
4:00 PM74 °FOvercast.5 mph54%29.82 "Hg25 mi
3:00 PM77 °FOvercast.6 mph51%29.82 "Hg25 mi
2:00 PM75 °FOvercast.5 mph49%29.81 "Hg25 mi
1:00 PM74 °FOvercast.5 mph48%29.82 "Hg25 mi
12:00 PM73 °FOvercast.3 mph49%29.82 "Hg25 mi
11:00 AM71 °FOvercast.5 mph57%29.82 "Hg25 mi
10:00 AM69 °FPartly sunny.5 mph63%29.81 "Hg25 mi
9:00 AM65 °FPartly sunny.5 mph73%29.80 "Hg25 mi
8:00 AM63 °FOvercast.3 mph79%29.80 "Hg25 mi
7:00 AM61 °FPartly sunny.3 mph85%29.80 "Hg19 mi
6:00 AM60 °FPartly sunny.5 mph88%29.80 "Hg19 mi
Weather by CustomWeather, © 2014

See weather overviewHow to use our weather pages